Crosby, ND

9:15 AM CDT on October 23, 2017 (GMT -0500)
Crosby

Weather History for KD50 - January, 2014

Change the Weather History Date:

Wednesday, January 1, 2014

  Actual Average (KISN) Record (KISN)
Temperature  
Mean Temperature -8 °F -  
Max Temperature -2 °F 19 °F 48 °F (1998)
Min Temperature -13 °F -1 °F -33 °F (1982)
Degree Days  
Heating Degree Days 72    
Moisture  
Dew Point -10 °F    
Average Humidity 78    
Maximum Humidity 92    
Minimum Humidity 71    
Precipitation  
Precipitation 0.05 in - - ()
Sea Level Pressure  
Sea Level Pressure 30.28 in    
Wind  
Wind Speed 5 mph (NE)    
Max Wind Speed 10 mph    
Max Gust Speed -    
Visibility 10 miles    
Events Snow    
Averages and records for this station are not official NWS values.
T = Trace of Precipitation, MM = Missing Value Source: NWS Daily Summary

Daily Weather History Graph

Daily Weather History Graph

Search for Another Location

Airport or City:

Trip Planner

Search our weather history database for the weather conditions in past years. The results will help you decide how hot, cold, wet, or windy it might be!

Date:

Astronomy

Jan. 01, 2014 Rise Set
Actual Time 8:46 AM CST 5:06 PM CST
Civil Twilight 8:09 AM CST 5:44 PM CST
Nautical Twilight 7:29 AM CST 6:24 PM CST
Astronomical Twilight 6:51 AM CST 7:02 PM CST
Moon 8:33 AM CST (1/1) 6:01 PM CST (1/1)
Length of Visible Light 9h 34m
Length of Day
8h 20m
New Moon, 0% of the Moon is Illuminated
Jan 1
New Moon
Jan 7
First Quarter
Jan 15
Full
Jan 23
Last Quarter
Jan 30
New

Hourly Weather History & Observations

Time (CST) Temp. Windchill Dew Point Humidity Pressure Visibility Wind Dir Wind Speed Gust Speed Precip Events Conditions
12:15 AM -2.2 °F -18.9 °F -9.4 °F 71% 30.16 in - SE 10.4 mph - N/A Snow Heavy Snow
12:35 AM -2.2 °F -15.6 °F -9.4 °F 71% 30.17 in - SSE 6.9 mph - N/A Snow Heavy Snow
12:55 AM -2.2 °F -14.2 °F -9.4 °F 71% 30.17 in - SSE 5.8 mph - 0.03 in Snow Heavy Snow
1:15 AM -2.2 °F -14.2 °F -7.6 °F 78% 30.17 in - SE 5.8 mph - 0.01 in Snow Heavy Snow
1:35 AM -2.2 °F -14.2 °F -7.6 °F 78% 30.17 in - SE 5.8 mph - 0.01 in Snow Heavy Snow
1:55 AM -4.0 °F -19.0 °F -9.4 °F 78% 30.17 in - East 8.1 mph - 0.02 in Snow Heavy Snow
2:15 AM -4.0 °F -20.2 °F -9.4 °F 78% 30.17 in - East 9.2 mph - N/A Snow Heavy Snow
2:35 AM -4.0 °F -19.0 °F -9.4 °F 78% 30.17 in - East 8.1 mph - N/A Snow Heavy Snow
2:55 AM -4.0 °F -19.0 °F -9.4 °F 78% 30.17 in 10.0 mi ESE 8.1 mph - N/A   Unknown
3:15 AM -4.0 °F -16.3 °F -9.4 °F 78% 30.19 in 10.0 mi East 5.8 mph - N/A   Unknown
3:35 AM -4.0 °F -19.0 °F -9.4 °F 78% 30.19 in 10.0 mi East 8.1 mph - N/A   Unknown
3:55 AM -4.0 °F -19.0 °F -9.4 °F 78% 30.19 in 10.0 mi East 8.1 mph - N/A   Unknown
4:15 AM -4.0 °F -16.3 °F -9.4 °F 78% 30.19 in 10.0 mi East 5.8 mph - N/A   Unknown
4:35 AM -4.0 °F -14.6 °F -9.4 °F 78% 30.19 in 10.0 mi ESE 4.6 mph - N/A   Unknown
4:55 AM -2.2 °F -12.5 °F -7.6 °F 78% 30.19 in 10.0 mi SSE 4.6 mph - N/A   Unknown
5:15 AM -2.2 °F -10.4 °F -7.6 °F 78% 30.20 in - SSE 3.5 mph - N/A   Unknown
5:35 AM -2.2 °F - -7.6 °F 78% 30.20 in - Calm Calm - N/A   Unknown
5:55 AM -4.0 °F -19.0 °F -9.4 °F 78% 30.21 in 10.0 mi NE 8.1 mph - N/A Snow Light Snow
6:15 AM -4.0 °F -16.3 °F -9.4 °F 78% 30.22 in 10.0 mi East 5.8 mph - N/A   Unknown
6:35 AM -4.0 °F -14.6 °F -9.4 °F 78% 30.23 in 10.0 mi ENE 4.6 mph - N/A Snow Light Snow
6:55 AM -4.0 °F -14.6 °F -9.4 °F 78% 30.24 in 10.0 mi ENE 4.6 mph - N/A   Unknown
7:15 AM -4.0 °F -16.3 °F -9.4 °F 78% 30.25 in - ENE 5.8 mph - N/A Snow Heavy Snow
7:35 AM -4.0 °F -17.8 °F -9.4 °F 78% 30.25 in - ENE 6.9 mph - N/A   Unknown
7:55 AM -5.8 °F -19.9 °F -11.2 °F 77% 30.26 in 10.0 mi ENE 6.9 mph - N/A   Unknown
8:15 AM -7.6 °F -16.5 °F -13.0 °F 77% 30.27 in 10.0 mi ENE 3.5 mph - N/A   Unknown
8:35 AM -9.4 °F -20.9 °F -13.0 °F 84% 30.28 in 10.0 mi NE 4.6 mph - N/A   Unknown
8:55 AM -11.2 °F -23.0 °F -14.8 °F 84% 30.30 in 10.0 mi NE 4.6 mph - N/A   Unknown
9:15 AM -9.4 °F -20.9 °F -13.0 °F 84% 30.31 in 10.0 mi NE 4.6 mph - N/A   Unknown
9:35 AM -9.4 °F -18.6 °F -13.0 °F 84% 30.32 in 10.0 mi North 3.5 mph - N/A   Unknown
9:55 AM -7.6 °F -16.5 °F -13.0 °F 77% 30.33 in 10.0 mi North 3.5 mph - N/A   Unknown
10:15 AM -7.6 °F -16.5 °F -13.0 °F 77% 30.33 in 10.0 mi NE 3.5 mph - N/A   Unknown
10:35 AM -7.6 °F - -13.0 °F 77% 30.33 in 10.0 mi Calm Calm - N/A   Unknown
10:55 AM -7.6 °F - -13.0 °F 77% 30.34 in 10.0 mi Calm Calm - N/A   Unknown
11:15 AM -5.8 °F - -11.2 °F 77% 30.34 in 10.0 mi Calm Calm - N/A   Unknown
11:35 AM -4.0 °F - -11.2 °F 71% 30.34 in 10.0 mi Calm Calm - N/A   Unknown
11:55 AM -4.0 °F -12.4 °F -11.2 °F 71% 30.34 in 10.0 mi NW 3.5 mph - N/A   Unknown
12:15 PM -4.0 °F -14.6 °F -11.2 °F 71% 30.34 in 10.0 mi NNW 4.6 mph - N/A   Unknown
12:35 PM -4.0 °F -16.3 °F -9.4 °F 78% 30.34 in 10.0 mi WNW 5.8 mph - N/A   Unknown
12:55 PM -2.2 °F -14.2 °F -9.4 °F 71% 30.34 in 10.0 mi NW 5.8 mph - N/A   Unknown
1:15 PM -2.2 °F -15.6 °F -9.4 °F 71% 30.34 in 10.0 mi WNW 6.9 mph - N/A   Unknown
1:35 PM -2.2 °F -14.2 °F -9.4 °F 71% 30.33 in 10.0 mi NW 5.8 mph - N/A   Unknown
1:55 PM -2.2 °F -15.6 °F -9.4 °F 71% 30.33 in 10.0 mi NW 6.9 mph - N/A   Unknown
2:15 PM -2.2 °F -16.8 °F -9.4 °F 71% 30.33 in 10.0 mi WNW 8.1 mph - N/A   Unknown
2:35 PM -2.2 °F -15.6 °F -9.4 °F 71% 30.34 in 10.0 mi NW 6.9 mph - N/A   Unknown
2:55 PM -4.0 °F -17.8 °F -9.4 °F 78% 30.33 in 10.0 mi NNW 6.9 mph - N/A   Unknown
3:15 PM -2.2 °F -14.2 °F -9.4 °F 71% 30.32 in 10.0 mi NNW 5.8 mph - N/A   Unknown
3:35 PM -4.0 °F -14.6 °F -11.2 °F 71% 30.33 in 10.0 mi North 4.6 mph - N/A   Unknown
3:55 PM -4.0 °F -12.4 °F -11.2 °F 71% 30.33 in 10.0 mi North 3.5 mph - N/A   Unknown
4:15 PM -5.8 °F -14.5 °F -11.2 °F 77% 30.34 in 10.0 mi NNW 3.5 mph - N/A   Unknown
4:35 PM -7.6 °F - -11.2 °F 84% 30.33 in 10.0 mi Calm Calm - N/A   Unknown
4:55 PM -9.4 °F - -13.0 °F 84% 30.33 in 10.0 mi Calm Calm - N/A   Unknown
5:15 PM -7.6 °F - -11.2 °F 84% 30.33 in 10.0 mi Calm Calm - N/A   Unknown
5:35 PM -4.0 °F - -9.4 °F 78% 30.34 in 10.0 mi Calm Calm - N/A   Unknown
5:55 PM -4.0 °F - -9.4 °F 78% 30.33 in 10.0 mi Calm Calm - N/A   Unknown
6:15 PM -4.0 °F - -9.4 °F 78% 30.34 in 10.0 mi Calm Calm - N/A   Unknown
6:35 PM -4.0 °F - -9.4 °F 78% 30.34 in 10.0 mi Calm Calm - N/A Snow Light Snow
6:55 PM -4.0 °F - -9.4 °F 78% 30.33 in 10.0 mi Calm Calm - N/A Snow Light Snow
7:15 PM -4.0 °F - -9.4 °F 78% 30.32 in 10.0 mi Calm Calm - N/A Snow Light Snow
7:35 PM -4.0 °F - -9.4 °F 78% 30.32 in 10.0 mi Calm Calm - N/A   Unknown
7:55 PM -4.0 °F - -9.4 °F 78% 30.32 in 10.0 mi Calm Calm - N/A   Unknown
8:15 PM -4.0 °F - -9.4 °F 78% 30.32 in 10.0 mi Calm Calm - N/A   Unknown
8:35 PM -4.0 °F - -9.4 °F 78% 30.33 in 10.0 mi Calm Calm - N/A   Unknown
8:55 PM -4.0 °F - -9.4 °F 78% 30.32 in 10.0 mi Calm Calm - N/A   Unknown
9:15 PM -2.2 °F -10.4 °F -9.4 °F 71% 30.34 in 10.0 mi West 3.5 mph - N/A   Unknown
9:35 PM -4.0 °F - -9.4 °F 78% 30.32 in 10.0 mi Calm Calm - N/A   Unknown
9:55 PM -4.0 °F - -9.4 °F 78% 30.32 in 10.0 mi Calm Calm - N/A   Unknown
10:15 PM -4.0 °F - -9.4 °F 78% 30.31 in 10.0 mi Calm Calm - N/A   Unknown
10:35 PM -7.6 °F -16.5 °F -11.2 °F 84% 30.31 in 10.0 mi ENE 3.5 mph - N/A   Unknown
10:55 PM -9.4 °F -18.6 °F -11.2 °F 92% 30.32 in 10.0 mi North 3.5 mph - N/A   Unknown
11:15 PM -9.4 °F - -13.0 °F 84% 30.32 in 10.0 mi Calm Calm - N/A   Unknown
11:35 PM -13.0 °F - -16.6 °F 84% 30.31 in 10.0 mi Calm Calm - N/A   Unknown
11:55 PM -11.2 °F - -13.0 °F 92% 30.32 in 10.0 mi Calm Calm - N/A   Unknown